Location: Brad
(46.1333°N, 22.7833°E)
Time: 11:54:54
(UTC+00:00)

YAOGAN 1 - Pass Details

Date: 03 February 2023
Orbit: 616 x 618 km, 97.8° (Epoch: 21 March)

Event Time Altitude Azimuth Distance (km) Brightness Sun altitude
Rises 16:29:32 0° 141° (SE) 2,882 5.7 -9.6°
Reaches altitude 10° 16:31:51 10° 132° (SE) 1,981 4.8 -10.0°
Maximum altitude 16:35:43 33° 68° (ENE) 1,042 3.2 -10.6°
Drops below altitude 10° 16:39:37 10° 5° (N) 1,995 5.0 -11.3°
Sets 16:41:58 0° 356° (N) 2,906 5.9 -11.7°
